Regional Weather Roundup
Issued by NWS Upton, NY

Current Version | Previous Version | Graphics & Text | Print | Product List | Glossary Off
Versions: 1 2 3 4 5 6 7 8 9 10 11 12 13 14 15 16 17 18 19 20 21 22 23 24 25 26 27 28 29 30 31 32 33 34 35 36 37 38 39 40 41 42

000
ASUS41 KOKX 210005
RWROKX

REGIONAL WEATHER ROUNDUP
NATIONAL WEATHER SERVICE NEW YORK NY
800 PM EDT MON OCT 20 2014

NOTE: "FAIR" INDICATES FEW OR NO CLOUDS BELOW 12,000 FEET WITH NO
SIGNIFICANT WEATHER AND/OR OBSTRUCTIONS TO VISIBILITY.

NYZ071-072-176-178-NJZ106-104-210100-
NEW YORK CITY METRO AREA


CITY           SKY/WX    TMP DP  RH WIND       PRES   REMARKS
CENTRAL PARK   CLEAR     57  37  47 SW3       30.01R
LAGUARDIA APRT PTCLDY    58  38  47 SW3       29.98R
KENNEDY INTL   MOCLDY    56  41  57 SW8       30.00R
NEWARK/LIBERTY MOCLDY    56  39  53 SW5       29.99R
BRNX BOT. GARD   N/A     55  37  50 E1        30.00R
TETERBORO      CLEAR     56  37  49 S3        29.97R
$$

NYZ177-179-078>081-210100-
LONG ISLAND NEW YORK

CITY           SKY/WX    TMP DP  RH WIND       PRES   REMARKS
FARMINGDALE    PTCLDY    56  42  59 S6        29.99S
ISLIP          MOCLDY    56  43  61 SW7       29.98S
SHIRLEY        PTCLDY    57  44  62 SW6       30.00S
WESTHAMPTON    PTCLDY    58  43  57 SW8       30.01S
MONTAUK POINT    N/A     57  45  64 SW7       30.02S
$$

NYZ052-065-067-210100-
HUDSON VALLEY

CITY           SKY/WX    TMP DP  RH WIND       PRES   REMARKS
WHITE PLAINS   PTCLDY    47  40  76 CALM      29.98R
NEWBURGH       PTCLDY    50  39  66 CALM      29.97
MONTGOMERY     PTCLDY    45  38  76 CALM      29.96R
POUGHKEEPSIE   CLEAR     51  37  58 CALM      29.97S
ALBANY         CLOUDY    52  36  54 S5        29.94S
$$

NJZ001-105-106-008-010-013-015-019>022-104-210100-
NEW JERSEY

CITY           SKY/WX    TMP DP  RH WIND       PRES   REMARKS
NEWARK/LIBERTY MOCLDY    56  39  53 SW5       29.99R
TETERBORO      CLEAR     56  37  49 S3        29.97R
CALDWELL       PTCLDY    53  38  56 CALM      29.98R
MORRISTOWN     CLEAR     46  41  81 CALM      29.98S
SOMERVILLE     PTCLDY    45  39  79 CALM      29.97R
SUSSEX         PTCLDY    51  40  65 CALM      29.96S
ANDOVER          N/A     52  38  58 CALM      29.97R
TRENTON        CLEAR     52  39  61 S3        29.97S
MILLVILLE      PTCLDY    56  43  61 SE5       29.99S
ATLANTIC CITY  CLOUDY    59  45  59 SW9       30.00R
WRIGHTSTOWN    PTCLDY    48  42  79 S6        29.97R
TOMS RIVER     MOCLDY    50  43  76 CALM      30.00R
BELMAR         PTCLDY    54  39  58 CALM      29.99S
$$

PAZ047>061-062-071-210100-
EASTERN PENNSYLVANIA

CITY           SKY/WX    TMP DP  RH WIND       PRES   REMARKS
PHILADELPHIA   MOCLDY    57  45  64 S7        29.98S
ALLENTOWN      CLOUDY    56  38  50 S3        29.96S
SCRANTON       CLOUDY    55  39  54 S7        29.91F
$$

CTZ002-004>006-009-010-012-RIZ004-006-007-MAZ004-011-015-210100-
SOUTHERN NEW ENGLAND
 IN CT

CITY           SKY/WX    TMP DP  RH WIND       PRES   REMARKS
BRADLEY INTL   CLOUDY    50  38  63 S6        29.98R
HARTFORD       MOCLDY    48  41  76 S5        29.99R
DANBURY        PTCLDY    44  31  60 CALM      29.99S
WTRBRY/OXFORD  PTCLDY    48  34  57 CALM      29.98S
BRIDGEPORT     CLEAR     59  43  55 SW16      29.98F
MERIDEN        PTCLDY    48  40  73 CALM      29.99S
NEW HAVEN      MOCLDY    60  42  51 SW12G18   29.99S
CHESTER        FAIR      52  43  71 S5        30.00S
GROTON         PTCLDY    56  44  64 SW14      30.00S
WILLIMANTIC    PTCLDY    46  40  79 CALM      30.01R

 IN RI

CITY           SKY/WX    TMP DP  RH WIND       PRES   REMARKS
PROVIDENCE     MOCLDY    47  40  76 S6        30.02R
BLOCK ISLAND   PTCLDY    57  41  54 SW14G20   30.01S
WESTERLY       PTCLDY    56  43  61 SW8       30.01S

 IN MA

CITY           SKY/WX    TMP DP  RH WIND       PRES   REMARKS
BOSTON         MOCLDY    53  35  50 SW9       30.00R
WORCESTER      PTCLDY    44  36  73 SW8       29.98R
WESTFIELD      MOCLDY    45  38  76 CALM      29.98R
PROVINCETOWN   CLOUDY    52  39  62 SW16      30.02S
NANTUCKET      PTCLDY    54  43  66 W14       30.03S
$$

ANZ330-335-338-340-345-350-353-355-210100-
COASTAL MARINE OBSERVATIONS


STATION/POSITION TIME  SKY/WX   TEMP    WIND        PRES    VSBY  WAVE
                                AIR SEA DIR/SP/G                  HT/PER
                 (UTC)          (F)     (DEG/KT/KT) (MB)    (MI)  (FT/S)
NY HARB ENTRANCE NOT AVBL
4S FIRE IS       0000               63                N/A           4/ 5
20S FIRE ISLAND  0000            62 63  210/ 17/ 21 1015.6          4/ 5
23SW MTP         0000                                 N/A           4/ 4
HUDSON CANYON    0000            62 66  220/ 17/ 19 1016.5          3/ 4
EXECUTION ROCKS  0000            58 64  180/  8/ 12   N/A
WESTERN LI SOUND 0000            58     180/ 10/ 12   N/A           0
CENTRAL LI SOUND 2300            59 63  210/ 14/ 16   N/A           2/ 4
EASTERN LI SOUND 2300            58 64  230/ 14/ 17   N/A
ROBBINS REEF     0000            59     200/  8/  9 1014.1
$$


>>>>>>>>>>>>>>>>>>>>>>>>>>>> KEY <<<<<<<<<<<<<<<<<<<<<<<<<<<
>                                                          <
>     SKY/WX - SKY CONDITION/PRESENT WEATHER               <
>     TMP    - TEMPERATURE IN FAHRENHEIT                   <
>     DP     - DEWPOINT IN FAHRENHEIT                      <
>     RH     - RELATIVE HUMIDITY IN PERCENT                <
>     WIND   - DIRECTION AND SPEED IN MPH                  <
>     PRES   - MEAN SEA LEVEL PRESSURE IN INCHES OF HG     <
>     WCI    - WIND CHILL INDEX                            <
>     VSB    - VISIBILITY IN MILES                         <
>     HX     - HEAT INDEX                                  <
>     TC     - TEMPERATURE IN CELSIUS                      <
>     VRB    - VARIABLE WIND DIRECTION                     <
>                                                          <
>>>>>>>>>>>>>>>>>>>>>>>>>>>> KEY <<<<<<<<<<<<<<<<<<<<<<<<<<<




USA.gov is the U.S. government's official web portal to all federal, state and local government web resources and services.